Location: Glens Falls
(43.3090°N, 73.6440°W)
Time: 09:42:33

SeaSat 1 - Pass Details

Date: 24 February 2018
Orbit: 745 x 747 km, 108.0° (Epoch: 21 March)

Event Time Altitude Azimuth Distance (km) Brightness Sun altitude
Exits shadow 18:24:52 10° 106° (ESE) 2,256 4.3 -9.4°
Maximum altitude 18:28:53 26° 50° (NE) 1,440 3.5 -10.1°
Drops below altitude 10° 18:32:56 10° 355° (N) 2,273 5.0 -10.9°
Sets 18:35:30 0° 343° (NNW) 3,201 5.9 -11.3°
